TimeCDT,TemperatureF,Dew PointF,Humidity,Sea Level PressureIn,VisibilityMPH,Wind Direction,Wind SpeedMPH,Gust SpeedMPH,PrecipitationIn,Events,Conditions,WindDirDegrees,DateUTC
12:53 AM,52.0,30.9,45,30.04,10.0,North,20.7,28.8,N/A,,Overcast,360,2013-10-05 05:53:00
1:53 AM,48.9,30.9,50,30.05,10.0,NNW,19.6,25.3,N/A,,Scattered Clouds,340,2013-10-05 06:53:00
2:53 AM,48.0,30.9,52,30.07,10.0,NNW,19.6,26.5,N/A,,Overcast,340,2013-10-05 07:53:00
3:53 AM,46.9,28.9,50,30.08,10.0,NNW,17.3,23.0,N/A,,Partly Cloudy,340,2013-10-05 08:53:00
4:53 AM,46.9,28.0,48,30.09,10.0,NNW,20.7,26.5,N/A,,Overcast,340,2013-10-05 09:53:00
5:53 AM,46.9,27.0,46,30.11,10.0,NNW,16.1,23.0,N/A,,Overcast,340,2013-10-05 10:53:00
6:53 AM,46.9,27.0,46,30.14,10.0,NNW,11.5,-,N/A,,Overcast,340,2013-10-05 11:53:00
7:53 AM,46.9,27.0,46,30.14,10.0,North,12.7,-,N/A,,Overcast,350,2013-10-05 12:53:00
8:53 AM,48.9,27.0,43,30.17,10.0,NW,16.1,21.9,N/A,,Overcast,320,2013-10-05 13:53:00
9:53 AM,50.0,26.1,39,30.18,10.0,NNW,23.0,27.6,N/A,,Mostly Cloudy,340,2013-10-05 14:53:00
10:53 AM,55.0,26.1,33,30.16,10.0,North,23.0,29.9,N/A,,Clear,350,2013-10-05 15:53:00
11:53 AM,57.0,25.0,29,30.16,10.0,NNW,20.7,29.9,N/A,,Clear,330,2013-10-05 16:53:00
12:53 PM,61.0,24.1,24,30.14,10.0,NNW,19.6,32.2,N/A,,Clear,340,2013-10-05 17:53:00
1:53 PM,64.0,25.0,23,30.11,10.0,NNW,17.3,28.8,N/A,,Clear,330,2013-10-05 18:53:00
2:53 PM,66.0,24.1,20,30.09,10.0,NW,17.3,27.6,N/A,,Clear,320,2013-10-05 19:53:00
3:53 PM,66.0,23.0,20,30.07,10.0,NNW,19.6,28.8,N/A,,Clear,330,2013-10-05 20:53:00
4:53 PM,66.0,23.0,20,30.06,10.0,NNW,17.3,26.5,N/A,,Clear,330,2013-10-05 21:53:00
5:53 PM,64.9,24.1,21,30.06,10.0,NW,17.3,24.2,N/A,,Clear,320,2013-10-05 22:53:00
6:53 PM,63.0,25.0,24,30.06,10.0,NW,13.8,18.4,N/A,,Clear,310,2013-10-05 23:53:00
7:53 PM,53.1,28.9,40,30.08,10.0,West,6.9,-,N/A,,Clear,280,2013-10-06 00:53:00
8:53 PM,51.1,28.9,43,30.09,10.0,West,6.9,-,N/A,,Clear,280,2013-10-06 01:53:00
9:53 PM,46.9,30.9,54,30.11,10.0,WSW,9.2,-,N/A,,Clear,240,2013-10-06 02:53:00
10:53 PM,43.0,32.0,65,30.13,10.0,West,5.8,-,N/A,,Clear,260,2013-10-06 03:53:00
11:53 PM,45.0,28.9,53,30.13,10.0,Calm,Calm,-,N/A,,Clear,0,2013-10-06 04:53:00